Weather reports worldwide

Advertisment
Kiev, Ukraine (33345): temperature & dewpoint: 30.05.2020 22:00:00 - 05.06.2020 22:00:00 (EEST)Kiev, Ukraine (33345): wind speed: 30.05.2020 22:00:00 - 05.06.2020 22:00:00 (EEST)Kiev, Ukraine (33345): wind direction: 30.05.2020 22:00:00 - 05.06.2020 22:00:00 (EEST)Kiev, Ukraine (33345): reduced air pressure: 30.05.2020 22:00:00 - 05.06.2020 22:00:00 (EEST)Kiev, Ukraine (33345): visibility: 30.05.2020 22:00:00 - 05.06.2020 22:00:00 (EEST)
Date & Time tt [°C] td [°C] ff [km/h] ff [kn] dd ppp [hPa] vv [km]
05.06.2020 22:00:00 - - - - - - -
05.06.2020 21:00:00 20,2 14,6 4 2 S 1006,8 20
05.06.2020 20:00:00 - - - - - - -
05.06.2020 19:00:00 - - - - - - -
05.06.2020 18:00:00 23,6 13,1 11 6 WSW 1006,2 20
05.06.2020 17:00:00 - - - - - - -
05.06.2020 16:00:00 - - - - - - -
05.06.2020 15:00:00 20,4 14,6 4 2 S 1006,9 20
05.06.2020 14:00:00 - - - - - - -
05.06.2020 13:00:00 - - - - - - -
05.06.2020 12:00:00 16,7 13,5 11 6 WSW 1006,6 10
05.06.2020 11:00:00 - - - - - - -
05.06.2020 10:00:00 - - - - - - -
05.06.2020 09:00:00 13,3 12,2 7 4 SW 1005,5 4,0
05.06.2020 08:00:00 - - - - - - -
05.06.2020 07:00:00 - - - - - - -
05.06.2020 06:00:00 12,3 9,8 0 0 N 1004,7 10
05.06.2020 05:00:00 - - - - - - -
05.06.2020 04:00:00 - - - - - - -
05.06.2020 03:00:00 12,8 9,3 7 4 SW 1004,6 20
05.06.2020 02:00:00 - - - - - - -
05.06.2020 01:00:00 - - - - - - -
05.06.2020 00:00:00 13,0 8,4 7 4 S 1004,9 20
04.06.2020 23:00:00 - - - - - - -
04.06.2020 22:00:00 - - - - - - -
04.06.2020 21:00:00 14,2 7,6 4 2 SW 1005,0 20
04.06.2020 20:00:00 - - - - - - -
04.06.2020 19:00:00 - - - - - - -
04.06.2020 18:00:00 17,0 8,5 14 8 W 1004,2 20
04.06.2020 17:00:00 - - - - - - -
04.06.2020 16:00:00 - - - - - - -
04.06.2020 15:00:00 18,4 6,4 14 8 W 1003,6 20
04.06.2020 14:00:00 - - - - - - -
04.06.2020 13:00:00 - - - - - - -
04.06.2020 12:00:00 16,2 6,7 18 10 WSW 1004,8 20
04.06.2020 11:00:00 - - - - - - -
04.06.2020 10:00:00 - - - - - - -
04.06.2020 09:00:00 14,9 9,1 11 6 SW 1004,5 20
04.06.2020 08:00:00 - - - - - - -
04.06.2020 07:00:00 - - - - - - -
04.06.2020 06:00:00 8,4 7,6 4 2 WSW 1005,0 4,0
04.06.2020 05:00:00 - - - - - - -
04.06.2020 04:00:00 - - - - - - -
04.06.2020 03:00:00 10,2 8,8 7 4 W 1004,8 4,0
04.06.2020 02:00:00 - - - - - - -
04.06.2020 01:00:00 - - - - - - -
04.06.2020 00:00:00 9,8 8,6 7 4 SW 1005,6 4,0
03.06.2020 23:00:00 - - - - - - -
03.06.2020 22:00:00 - - - - - - -
03.06.2020 21:00:00 11,1 9,7 4 2 SE 1005,0 4,0
03.06.2020 20:00:00 - - - - - - -
03.06.2020 19:00:00 - - - - - - -
03.06.2020 18:00:00 13,4 8,4 4 2 W 1005,3 20
03.06.2020 17:00:00 - - - - - - -
03.06.2020 16:00:00 - - - - - - -
03.06.2020 15:00:00 13,0 8,2 11 6 W 1005,8 10
03.06.2020 14:00:00 - - - - - - -
03.06.2020 13:00:00 - - - - - - -
03.06.2020 12:00:00 12,6 8,0 14 8 SW 1006,1 10
03.06.2020 11:00:00 - - - - - - -
03.06.2020 10:00:00 - - - - - - -
03.06.2020 09:00:00 12,7 7,2 14 8 S 1005,7 20
03.06.2020 08:00:00 - - - - - - -
03.06.2020 07:00:00 - - - - - - -
03.06.2020 06:00:00 6,5 5,6 7 4 S 1005,5 10
03.06.2020 05:00:00 - - - - - - -
03.06.2020 04:00:00 - - - - - - -
03.06.2020 03:00:00 6,4 5,0 4 2 S 1006,0 10
03.06.2020 02:00:00 - - - - - - -
03.06.2020 01:00:00 - - - - - - -
03.06.2020 00:00:00 8,9 7,2 7 4 S 1005,9 10
02.06.2020 23:00:00 - - - - - - -
02.06.2020 22:00:00 - - - - - - -
02.06.2020 21:00:00 10,0 7,1 4 2 SSW 1005,8 20
02.06.2020 20:00:00 - - - - - - -
02.06.2020 19:00:00 - - - - - - -
02.06.2020 18:00:00 13,4 5,6 11 6 SSW 1005,2 20
02.06.2020 17:00:00 - - - - - - -
02.06.2020 16:00:00 - - - - - - -
02.06.2020 15:00:00 12,4 7,3 14 8 SSW 1005,7 20
02.06.2020 14:00:00 - - - - - - -
02.06.2020 13:00:00 - - - - - - -
02.06.2020 12:00:00 10,5 5,3 14 8 SSW 1005,8 20
02.06.2020 11:00:00 - - - - - - -
02.06.2020 10:00:00 - - - - - - -
02.06.2020 09:00:00 9,1 4,6 14 8 WSW 1005,4 20
02.06.2020 08:00:00 - - - - - - -
02.06.2020 07:00:00 - - - - - - -
02.06.2020 06:00:00 5,7 4,3 7 4 W 1005,7 10
02.06.2020 05:00:00 - - - - - - -
02.06.2020 04:00:00 - - - - - - -
02.06.2020 03:00:00 6,5 4,9 4 2 NW 1006,9 10
02.06.2020 02:00:00 - - - - - - -
02.06.2020 01:00:00 - - - - - - -
02.06.2020 00:00:00 8,5 4,4 7 4 NNW 1008,2 20
01.06.2020 23:00:00 - - - - - - -
01.06.2020 22:00:00 - - - - - - -
01.06.2020 21:00:00 12,1 3,4 14 8 N 1008,1 20
01.06.2020 20:00:00 - - - - - - -
01.06.2020 19:00:00 - - - - - - -
01.06.2020 18:00:00 14,6 1,6 14 8 NE 1008,1 20
01.06.2020 17:00:00 - - - - - - -
01.06.2020 16:00:00 - - - - - - -
01.06.2020 15:00:00 14,1 5,2 18 10 NNE 1008,4 20
01.06.2020 14:00:00 - - - - - - -
01.06.2020 13:00:00 - - - - - - -
01.06.2020 12:00:00 12,2 7,7 14 8 NNE 1008,7 20
01.06.2020 11:00:00 - - - - - - -
01.06.2020 10:00:00 - - - - - - -
01.06.2020 09:00:00 10,0 8,2 18 10 NE 1008,5 20
01.06.2020 08:00:00 - - - - - - -
01.06.2020 07:00:00 - - - - - - -
01.06.2020 06:00:00 9,9 9,1 14 8 NE 1007,4 10
01.06.2020 05:00:00 - - - - - - -
01.06.2020 04:00:00 - - - - - - -
01.06.2020 03:00:00 12,3 10,6 7 4 NE 1007,4 20
01.06.2020 02:00:00 - - - - - - -
01.06.2020 01:00:00 - - - - - - -
01.06.2020 00:00:00 11,7 9,5 0 0 N 1008,1 20
31.05.2020 23:00:00 - - - - - - -
31.05.2020 22:00:00 - - - - - - -
31.05.2020 21:00:00 14,7 9,9 4 2 SSE 1007,8 20
31.05.2020 20:00:00 - - - - - - -
31.05.2020 19:00:00 - - - - - - -
31.05.2020 18:00:00 17,2 9,4 7 4 ENE 1007,0 20
31.05.2020 17:00:00 - - - - - - -
31.05.2020 16:00:00 - - - - - - -
31.05.2020 15:00:00 14,5 9,1 7 4 WSW 1007,4 20
31.05.2020 14:00:00 - - - - - - -
31.05.2020 13:00:00 - - - - - - -
31.05.2020 12:00:00 14,2 9,1 7 4 S 1007,3 20
31.05.2020 11:00:00 - - - - - - -
31.05.2020 10:00:00 - - - - - - -
31.05.2020 09:00:00 12,5 8,3 14 8 SSW 1006,1 20
31.05.2020 08:00:00 - - - - - - -
31.05.2020 07:00:00 - - - - - - -
31.05.2020 06:00:00 10,4 8,2 11 6 SSW 1005,3 20
31.05.2020 05:00:00 - - - - - - -
31.05.2020 04:00:00 - - - - - - -
31.05.2020 03:00:00 11,0 9,4 11 6 SSW 1004,4 10
31.05.2020 02:00:00 - - - - - - -
31.05.2020 01:00:00 - - - - - - -
31.05.2020 00:00:00 11,6 9,4 11 6 SSW 1003,3 20
30.05.2020 23:00:00 - - - - - - -
30.05.2020 22:00:00 - - - - - - -

tt = temperature
td = dewpoint
ff = wind speed
dd = wind direction
ppp = reduced air pressure
vv = visibility

Next stations